Le Mars, IA

8:24 AM CST on February 07, 2016 (GMT -0600)
Le Mars Municipal

Weather History for KLRJ - November, 2012

Change the Weather History Date:

Thursday, November 22, 2012

  Actual Average Record
Temperature  
Mean Temperature 46 °F -  
Max Temperature 57 °F 42 °F 64 °F (1974)
Min Temperature 33 °F 24 °F 3 °F (2015)
Degree Days  
Heating Degree Days 19    
Moisture  
Dew Point 34 °F    
Average Humidity 61    
Maximum Humidity 87    
Minimum Humidity 47    
Precipitation  
Precipitation 0.00 in - - ()
Sea Level Pressure  
Sea Level Pressure 29.89 in    
Wind  
Wind Speed 13 mph (WNW)    
Max Wind Speed 30 mph    
Max Gust Speed 40 mph    
Visibility 10 miles    
Events      
Averages and records for this station are not official NWS values.
T = Trace of Precipitation, MM = Missing Value Source: NWS Daily Summary

Daily Weather History Graph

Daily Weather History Graph

Search for Another Location

Airport or City:

Trip Planner

Search our weather history database for the weather conditions in past years. The results will help you decide how hot, cold, wet, or windy it might be!

Date:

Astronomy

Nov. 22, 2012 Rise Set
Actual Time 7:25 AM CST 4:55 PM CST
Civil Twilight 6:54 AM CST 5:26 PM CST
Nautical Twilight 6:20 AM CST 6:01 PM CST
Astronomical Twilight 5:46 AM CST 6:35 PM CST
Moon 1:48 PM CST (11/22) 1:39 AM CST (11/22)
Length of Visible Light 10h 32m
Length of Day
9h 30m
Waxing Gibbous, 71% of the Moon is Illuminated
Nov 22
Waxing Gibbous
Nov 28
Full
Dec 6
Last Quarter
Dec 13
New
Dec 19
First Quarter

Hourly Weather History & Observations

Time (CST) Temp. Windchill Dew Point Humidity Pressure Visibility Wind Dir Wind Speed Gust Speed Precip Events Conditions
12:15 AM 55.4 °F - 42.8 °F 63% 29.73 in 10.0 mi SSW 10.4 mph - N/A   Clear
12:35 AM 55.4 °F - 42.8 °F 63% 29.72 in 10.0 mi South 12.7 mph - N/A   Clear
12:55 AM 55.4 °F - 42.8 °F 63% 29.71 in 10.0 mi SSW 11.5 mph - N/A   Clear
1:15 AM 57.2 °F - 42.8 °F 59% 29.70 in 10.0 mi South 11.5 mph - N/A   Clear
1:35 AM 53.6 °F - 42.8 °F 67% 29.70 in 10.0 mi SSW 11.5 mph - N/A   Clear
1:55 AM 53.6 °F - 42.8 °F 67% 29.70 in 10.0 mi SSW 9.2 mph - N/A   Clear
2:15 AM 51.8 °F - 42.8 °F 71% 29.71 in 10.0 mi SSW 8.1 mph - N/A   Clear
2:35 AM 51.8 °F - 42.8 °F 71% 29.70 in 10.0 mi South 8.1 mph - N/A   Clear
2:55 AM 51.8 °F - 42.8 °F 71% 29.69 in 10.0 mi South 8.1 mph - N/A   Clear
3:15 AM 51.8 °F - 42.8 °F 71% 29.68 in 10.0 mi South 9.2 mph - N/A   Clear
3:35 AM 51.8 °F - 42.8 °F 71% 29.68 in 10.0 mi South 8.1 mph - N/A   Clear
3:55 AM 51.8 °F - 42.8 °F 71% 29.67 in 10.0 mi South 9.2 mph - N/A   Clear
4:15 AM 51.8 °F - 42.8 °F 71% 29.67 in 10.0 mi South 10.4 mph - N/A   Clear
4:35 AM 50.0 °F - 41.0 °F 71% 29.67 in 10.0 mi SSW 9.2 mph - N/A   Clear
4:55 AM 48.2 °F - 41.0 °F 76% 29.67 in 10.0 mi SSW 5.8 mph - N/A   Clear
5:15 AM 46.4 °F 43.5 °F 39.2 °F 76% 29.68 in 10.0 mi SSW 5.8 mph - N/A   Clear
5:35 AM 46.4 °F 43.5 °F 39.2 °F 76% 29.67 in 10.0 mi South 5.8 mph - N/A   Clear
5:55 AM 46.4 °F 42.9 °F 39.2 °F 76% 29.68 in 10.0 mi SSW 6.9 mph - N/A   Clear
6:15 AM 46.4 °F 43.5 °F 39.2 °F 76% 29.68 in 10.0 mi South 5.8 mph - N/A   Clear
6:35 AM 44.6 °F 41.4 °F 37.4 °F 76% 29.68 in 10.0 mi South 5.8 mph - N/A   Clear
6:55 AM 42.8 °F 39.3 °F 37.4 °F 81% 29.69 in 10.0 mi SSW 5.8 mph - N/A   Clear
7:15 AM 42.8 °F 40.1 °F 37.4 °F 81% 29.69 in 10.0 mi South 4.6 mph - N/A   Clear
7:35 AM 39.2 °F - 35.6 °F 87% 29.70 in 10.0 mi Calm Calm - N/A   Clear
7:55 AM 39.2 °F - 35.6 °F 87% 29.72 in 10.0 mi Calm Calm - N/A   Clear
8:15 AM 42.8 °F 40.1 °F 37.4 °F 81% 29.72 in 10.0 mi SW 4.6 mph - N/A   Clear
8:35 AM 46.4 °F 44.3 °F 35.6 °F 66% 29.74 in 10.0 mi West 4.6 mph - N/A   Clear
8:55 AM 48.2 °F - 33.8 °F 58% 29.74 in 10.0 mi WNW 11.5 mph 17.3 mph N/A   Clear
9:15 AM 48.2 °F - 33.8 °F 58% 29.75 in 10.0 mi NW 12.7 mph 17.3 mph N/A   Clear
9:35 AM 51.8 °F - 33.8 °F 50% 29.75 in 10.0 mi NW 16.1 mph 21.9 mph N/A   Clear
9:55 AM 51.8 °F - 33.8 °F 50% 29.77 in 10.0 mi NW 20.7 mph 25.3 mph N/A   Clear
10:15 AM 53.6 °F - 35.6 °F 51% 29.78 in 10.0 mi NW 21.9 mph 28.8 mph N/A   Clear
10:35 AM 55.4 °F - 35.6 °F 47% 29.80 in 10.0 mi NW 18.4 mph 25.3 mph N/A   Clear
10:55 AM 55.4 °F - 35.6 °F 47% 29.82 in 10.0 mi NW 21.9 mph 35.7 mph N/A   Clear
11:15 AM 55.4 °F - 35.6 °F 47% 29.84 in 10.0 mi NNW 21.9 mph 33.4 mph N/A   Clear
11:35 AM 53.6 °F - 35.6 °F 51% 29.84 in 10.0 mi NNW 21.9 mph 32.2 mph N/A   Clear
11:55 AM 53.6 °F - 35.6 °F 51% 29.85 in 10.0 mi NW 28.8 mph 40.3 mph N/A   Clear
12:15 PM 51.8 °F - 33.8 °F 50% 29.87 in 10.0 mi NW 27.6 mph 35.7 mph N/A   Clear
12:35 PM 51.8 °F - 33.8 °F 50% 29.88 in 10.0 mi NW 27.6 mph 39.1 mph N/A   Clear
12:55 PM 51.8 °F - 33.8 °F 50% 29.89 in 10.0 mi NW 25.3 mph 39.1 mph N/A   Scattered Clouds
1:15 PM 51.8 °F - 33.8 °F 50% 29.91 in 10.0 mi NNW 24.2 mph 40.3 mph N/A   Scattered Clouds
1:35 PM 51.8 °F - 33.8 °F 50% 29.92 in 10.0 mi NNW 25.3 mph 32.2 mph N/A   Clear
1:55 PM 51.8 °F - 33.8 °F 50% 29.93 in 10.0 mi NNW 24.2 mph 34.5 mph N/A   Clear
2:15 PM 51.8 °F - 33.8 °F 50% 29.95 in 10.0 mi NNW 23.0 mph 34.5 mph N/A   Scattered Clouds
2:35 PM 50.0 °F - 33.8 °F 54% 29.97 in 10.0 mi NNW 24.2 mph 33.4 mph N/A   Mostly Cloudy
2:55 PM 48.2 °F - 33.8 °F 58% 29.98 in 10.0 mi NNW 29.9 mph 38.0 mph N/A   Overcast
3:15 PM 46.4 °F 38.5 °F 33.8 °F 62% 29.99 in 10.0 mi NNW 21.9 mph 32.2 mph N/A   Overcast
3:35 PM 46.4 °F 39.8 °F 33.8 °F 62% 30.01 in 10.0 mi NNW 16.1 mph 31.1 mph N/A   Mostly Cloudy
3:55 PM 46.4 °F 38.5 °F 33.8 °F 62% 30.03 in 10.0 mi NW 21.9 mph 28.8 mph N/A   Overcast
4:15 PM 46.4 °F 38.7 °F 33.8 °F 62% 30.03 in 10.0 mi NNW 20.7 mph 28.8 mph N/A   Mostly Cloudy
4:35 PM 46.4 °F 40.4 °F 33.8 °F 62% 30.05 in 10.0 mi NNW 13.8 mph 20.7 mph N/A   Clear
4:55 PM 44.6 °F 37.4 °F 33.8 °F 66% 30.05 in 10.0 mi NW 16.1 mph 23.0 mph N/A   Clear
5:15 PM 44.6 °F 40.7 °F 32.0 °F 61% 30.07 in 10.0 mi NNW 6.9 mph - N/A   Clear
5:35 PM 44.6 °F 38.1 °F 30.2 °F 57% 30.07 in 10.0 mi NNW 13.8 mph 23.0 mph N/A   Clear
5:55 PM 42.8 °F 36.2 °F 30.2 °F 61% 30.09 in 10.0 mi NW 12.7 mph - N/A   Clear
6:15 PM 42.8 °F 38.0 °F 30.2 °F 61% 30.10 in 10.0 mi NNW 8.1 mph - N/A   Clear
6:35 PM 42.8 °F 35.4 °F 30.2 °F 61% 30.11 in 10.0 mi NW 15.0 mph - N/A   Clear
6:55 PM 42.8 °F 37.0 °F 30.2 °F 61% 30.12 in 10.0 mi NNW 10.4 mph - N/A   Clear
8:15 PM 39.2 °F 31.2 °F 24.8 °F 56% 30.16 in 10.0 mi NW 13.8 mph 18.4 mph N/A   Clear
8:35 PM 37.4 °F 29.8 °F 24.8 °F 60% 30.17 in 10.0 mi NW 11.5 mph - N/A   Clear
8:55 PM 37.4 °F 30.3 °F 23.0 °F 56% 30.17 in 10.0 mi NW 10.4 mph - N/A   Clear
9:15 PM 35.6 °F 27.5 °F 21.2 °F 56% 30.17 in 10.0 mi NW 11.5 mph 17.3 mph N/A   Clear
9:35 PM 35.6 °F 28.0 °F 21.2 °F 56% 30.17 in 10.0 mi NW 10.4 mph - N/A   Scattered Clouds
9:55 PM 35.6 °F 27.1 °F 21.2 °F 56% 30.18 in 10.0 mi NW 12.7 mph - N/A   Overcast
10:15 PM 35.6 °F 25.5 °F 19.4 °F 52% 30.19 in 10.0 mi NW 17.3 mph 26.5 mph N/A   Overcast
10:35 PM 35.6 °F 24.8 °F 19.4 °F 52% 30.20 in 10.0 mi NW 19.6 mph 28.8 mph N/A   Overcast
10:55 PM 35.6 °F 25.9 °F 19.4 °F 52% 30.20 in 10.0 mi NW 16.1 mph 27.6 mph N/A   Overcast
11:15 PM 35.6 °F 23.7 °F 17.6 °F 48% 30.21 in 10.0 mi NNW 24.2 mph 35.7 mph N/A   Overcast
11:35 PM 35.6 °F 24.2 °F 19.4 °F 52% 30.22 in 10.0 mi NNW 21.9 mph 28.8 mph N/A   Overcast
11:55 PM 33.8 °F 20.8 °F 15.8 °F 48% 30.24 in 10.0 mi NNW 26.5 mph 34.5 mph N/A   Overcast